Regional Weather Roundup
Issued by NWS Raleigh/Durham, NC

Home | Current Version | Previous Version | Text Only | Print | Product List | Glossary On
Versions: 1 2 3 4 5 6 7 8 9 10 11 12 13 14 15 16 17 18 19 20 21 22 23 24 25 26 27 28 29 30 31 32 33 34 35 36 37 38 39 40 41 42 43 44 45 46 47 48 49 50
000
ASUS42 KRAH 171810
RWRRAH
NORTH CAROLINA WEATHER ROUNDUP
NATIONAL WEATHER SERVICE RALEIGH NC
100 PM EST TUE JAN 17 2017

NOTE: "FAIR" INDICATES FEW OR NO CLOUDS BELOW 12,000 FEET WITH NO
SIGNIFICANT WEATHER AND/OR OBSTRUCTIONS TO VISIBILITY.

NCZ001-053-055-056-065-067-171900-
WESTERN NORTH CAROLINA

CITY           SKY/WX    TMP DP  RH WIND       PRES   REMARKS
ASHEVILLE      PTSUNNY   61  50  67 S15       30.14F
JEFFERSON      CLOUDY    51  47  88 SE5       30.11F
MORGANTON      FOG       51  51 100 CALM      30.18F VSB 1
HICKORY        CLOUDY    54  53  97 SW9       30.14F
RUTHERFORDTON  PTSUNNY   58  55  91 S12G18    30.16F
MOUNT AIRY     NOT AVBL
BOONE          RAIN      57  47  69 W12G20    30.13F
$$

NCZ021-022-025-041-071-084-088-171900-
CENTRAL NORTH CAROLINA

CITY           SKY/WX    TMP DP  RH WIND       PRES   REMARKS
CHARLOTTE      CLOUDY    59  53  80 SW12      30.18F
GREENSBORO     CLOUDY    58  53  84 S10       30.13F
WINSTON-SALEM  CLOUDY    57  51  80 S6        30.14F
RALEIGH-DURHAM CLOUDY    57  52  83 SW13      30.18F
FORT BRAGG     NOT AVBL
FAYETTEVILLE   CLOUDY    60  54  80 S12       30.19F
BURLINGTON     CLOUDY    61  53  75 S9        30.13F
LAURINBURG     PTSUNNY   62  55  77 SW8       30.20F
$$

NCZ011-015-027-028-043-044-047-080-103-171900-
NORTHEASTERN NORTH CAROLINA

CITY           SKY/WX    TMP DP  RH WIND       PRES   REMARKS
ROCKY MT-WILSO CLOUDY    57  54  89 S8        30.19F
GREENVILLE     CLOUDY    57  52  82 SW7       30.20F
WASHINGTON     CLOUDY    59  52  76 SW7       30.20F
ELIZABETH CITY CLOUDY    54  50  86 S8        30.18F
MANTEO         PTSUNNY   56  51  82 SW7       30.20F
CAPE HATTERAS  PTSUNNY   57  49  74 S3        30.20F
$$

NCZ078-087-090-091-093-098-101-171900-
SOUTHEASTERN NORTH CAROLINA

CITY           SKY/WX    TMP DP  RH WIND       PRES   REMARKS
LUMBERTON      CLOUDY    58  56  93 SW6       30.21F
GOLDSBORO      NOT AVBL
KINSTON        CLOUDY    57  52  82 SW7       30.21F
KENANSVILLE    NOT AVBL
NEW BERN       CLOUDY    66  54  65 SW7       30.21F
CHERRY POINT   CLOUDY    70  60  70 W8        30.20F
BEAUFORT       MOSUNNY   68  61  78 S6        30.20F
JACKSONVILLE   PTSUNNY   70  59  68 VRB7      30.19F
WILMINGTON     MOSUNNY   70  58  65 W9        30.21F
$$




USA.gov is the U.S. government's official web portal to all federal, state and local government web resources and services.